Location: Poughquag
(41.6090°N, 73.6820°W)
Time: 20:49:41
(UTC-04:00)

Envisat - Visible Passes

Search period start: 29 March 2017 00:00
Search period end: 08 April 2017 00:00
Orbit: 764 x 766 km, 98.2° (Epoch: 28 March)

Date Brightness Start Highest point End Pass type
(mag) Time Alt. Az. Time Alt. Az. Time Alt. Az.
29 Mar 4.3 19:51:57 10° ESE 19:55:43 21° ENE 19:59:29 10° NNE visible
29 Mar 3.8 21:31:29 23° SSW 21:34:23 48° W 21:39:18 10° NNW visible
30 Mar 2.9 20:54:15 21° SSE 20:57:39 78° ENE 21:02:44 10° N visible
30 Mar 5.7 22:35:16 10° WSW 22:37:14 12° W 22:39:11 10° WNW visible
31 Mar 3.7 20:17:01 12° SE 20:21:07 35° ENE 20:25:43 10° N visible
31 Mar 4.8 21:57:13 16° SW 22:00:09 27° W 22:04:28 10° NW visible
01 Apr 4.6 19:41:31 10° ESE 19:44:46 17° ENE 19:48:02 10° NNE visible
01 Apr 3.4 21:19:59 21° S 21:23:17 61° W 21:28:20 10° NNW visible
02 Apr 3.0 20:42:46 17° SSE 20:46:37 61° ENE 20:51:38 10° N visible
02 Apr 5.5 22:23:02 10° SW 22:26:02 16° W 22:29:03 10° NW visible
03 Apr 4.0 20:05:50 10° SE 20:10:08 29° ENE 20:14:27 10° N visible
03 Apr 4.4 21:45:44 17° SSW 21:49:01 34° W 21:53:39 10° NNW visible
04 Apr 3.1 21:08:31 19° S 21:12:13 77° WSW 21:17:19 10° NNW visible
05 Apr 3.3 20:31:17 13° SE 20:35:36 49° ENE 20:40:29 10° N visible
05 Apr 5.2 22:11:29 11° SW 22:14:52 20° W 22:18:32 10° NW visible
06 Apr 4.2 19:55:14 10° ESE 19:59:10 23° ENE 20:03:08 10° NNE visible
06 Apr 4.0 21:34:16 17° SSW 21:37:54 43° W 21:42:45 10° NNW visible
07 Apr 2.9 20:57:02 16° SSE 21:01:09 85° ENE 21:06:16 10° NNW visible
07 Apr 5.8 22:39:35 10° WSW 22:40:48 11° W 22:42:01 10° WNW visible
